Temp
-15 -16 -16 -16 -16 -16 -16 -15 -15 -15 -15 -14 -14 -14 -14 -13 -13 -12 -12 -12 -12 -11 -11 -11 -10 -10 -10 -10 -9 -9 -9 -9 -9 -9 -9 -9 -9 -9 -9 -9 -8 -9 -9 -8 -8 -8 -7
-15 -16 -16 -16 -15 -16 -15 -15 -15 -15 -15 -14 -14 -14 -14 -14 -13 -13 -13 -13 -12 -12 -12 -12 -11 -11 -11 -10 -11 -10 -10 -10 -9 -9 -9 -9 -9 -9 -9 -9 -9 -8 -8 -9 -8 -8 -8
-15 -15 -15 -15 -15 -15 -15 -15 -15 -15 -14 -14 -14 -14 -14 -14 -13 -13 -13 -13 -13 -13 -13 -12 -12 -12 -11 -11 -11 -11 -11 -10 -10 -10 -10 -9 -9 -9 -9 -9 -9 -8 -8 -8 -8 -9 -8
-15 -15 -15 -15 -15 -15 -15 -15 -15 -15 -15 -14 -14 -14 -14 -14 -14 -13 -13 -13 -13 -13 -13 -13 -12 -12 -12 -11 -12 -12 -11 -11 -11 -11 -11 -11 -10 -9 -9 -10 -9 -9 -8 -8 -8 -9 -9
-15 -15 -15 -15 -15 -15 -15 -15 -15 -15 -15 -15 -14 -14 -14 -14 -14 -13 -13 -13 -13 -13 -13 -13 -13 -13 -12 -12 -12 -12 -12 -12 -12 -12 -11 -11 -11 -11 -10 -9 -9 -10 -9 -9 -8 -9 -9
-16 -16 -15 -15 -15 -15 -15 -15 -15 -15 -15 -15 -14 -14 -14 -14 -14 -14 -13 -13 -13 -13 -13 -13 -13 -13 -13 -13 -12 -12 -12 -12 -12 -12 -12 -11 -11 -11 -11 -11 -10 -9 -9 -9 -9 -9 -9
-16 -16 -16 -16 -15 -15 -15 -15 -15 -15 -15 -15 -15 -15 -14 -14 -14 -14 -14 -14 -14 -14 -13 -13 -13 -13 -13 -13 -12 -12 -12 -12 -12 -12 -12 -12 -12 -12 -11 -11 -11 -10 -9 -8 -8 -9 -9
-16 -16 -16 -16 -16 -15 -15 -15 -15 -15 -15 -15 -15 -15 -14 -14 -14 -14 -14 -14 -14 -14 -14 -14 -13 -13 -13 -13 -13 -13 -13 -13 -13 -13 -12 -13 -12 -12 -11 -11 -11 -10 -10 -9 -9 -10 -10
-16 -16 -16 -16 -16 -16 -15 -15 -15 -15 -15 -15 -15 -15 -15 -14 -14 -14 -14 -14 -14 -14 -14 -14 -14 -14 -13 -13 -13 -13 -13 -13 -13 -13 -13 -13 -13 -12 -12 -12 -11 -11 -11 -10 -10 -10 -10
-16 -16 -16 -16 -16 -16 -16 -16 -16 -16 -16 -15 -15 -15 -15 -15 -14 -14 -14 -14 -14 -14 -14 -14 -14 -14 -14 -13 -13 -13 -13 -13 -13 -13 -13 -13 -14 -13 -13 -13 -13 -11 -13 -12 -12 -13 -9
-16 -16 -16 -16 -16 -16 -16 -16 -16 -16 -16 -16 -16 -15 -15 -15 -15 -15 -15 -15 -15 -14 -14 -14 -14 -14 -14 -14 -14 -14 -13 -13 -13 -14 -14 -15 -14 -14 -14 -15 -17 -15 -16 -16 -16 -15 -13
-17 -16 -16 -16 -16 -16 -16 -16 -16 -16 -16 -16 -16 -16 -16 -15 -15 -15 -15 -15 -15 -15 -14 -14 -14 -14 -14 -14 -14 -14 -14 -14 -14 -14 -15 -16 -15 -15 -15 -18 -19 -19 -18 -19 -20 -19 -18
-17 -17 -17 -17 -17 -17 -17 -17 -16 -16 -16 -16 -16 -16 -16 -16 -16 -16 -15 -15 -16 -15 -15 -15 -15 -15 -15 -15 -14 -14 -14 -14 -14 -14 -15 -16 -16 -16 -18 -19 -21 -22 -21 -22 -22 -21 -19
-17 -17 -17 -17 -17 -17 -17 -17 -17 -16 -16 -16 -16 -16 -16 -16 -16 -16 -16 -16 -15 -15 -15 -15 -15 -15 -15 -15 -15 -14 -15 -15 -15 -15 -15 -16 -17 -17 -19 -21 -22 -23 -23 -21 -21 -20 -19
-17 -17 -17 -17 -17 -17 -17 -17 -17 -17 -17 -17 -16 -16 -16 -16 -16 -16 -16 -16 -16 -16 -16 -16 -16 -16 -15 -15 -15 -15 -15 -15 -15 -15 -16 -16 -18 -18 -20 -21 -22 -22 -22 -22 -22 -20 -20
-17 -17 -17 -17 -17 -17 -17 -17 -17 -17 -17 -17 -17 -17 -17 -17 -17 -16 -16 -16 -16 -16 -16 -16 -16 -16 -16 -16 -16 -16 -15 -15 -16 -16 -16 -17 -17 -18 -21 -21 -22 -21 -22 -22 -21 -21 -20
-17 -17 -17 -17 -17 -17 -17 -17 -17 -17 -17 -17 -17 -17 -17 -16 -16 -16 -16 -16 -16 -16 -16 -16 -16 -16 -16 -16 -16 -16 -16 -16 -16 -16 -16 -17 -17 -19 -20 -19 -22 -22 -21 -22 -22 -21 -20
-18 -18 -18 -18 -18 -18 -18 -17 -18 -18 -17 -17 -17 -17 -17 -17 -16 -17 -16 -16 -16 -16 -16 -16 -16 -16 -17 -17 -17 -17 -16 -16 -16 -16 -17 -17 -17 -19 -20 -20 -21 -21 -22 -22 -22 -22 -22
-18 -18 -18 -18 -18 -18 -18 -18 -18 -18 -18 -17 -17 -17 -17 -17 -16 -16 -16 -16 -17 -17 -17 -16 -16 -16 -17 -17 -17 -17 -17 -17 -17 -16 -17 -18 -18 -18 -20 -20 -21 -21 -22 -22 -22 -22 -22
-18 -18 -18 -18 -18 -18 -18 -18 -18 -18 -18 -18 -17 -17 -17 -17 -17 -17 -16 -16 -17 -17 -17 -17 -17 -17 -17 -17 -18 -18 -17 -18 -18 -17 -17 -18 -18 -18 -19 -20 -21 -22 -22 -22 -22 -22 -22
-18 -18 -18 -18 -18 -18 -18 -18 -18 -18 -18 -18 -18 -17 -17 -17 -17 -17 -17 -17 -17 -17 -17 -17 -17 -17 -17 -17 -18 -18 -18 -18 -18 -18 -17 -18 -18 -18 -19 -19 -20 -21 -21 -22 -22 -22 -22
-19 -18 -18 -18 -18 -18 -18 -18 -18 -18 -18 -18 -18 -18 -18 -17 -17 -17 -17 -17 -17 -17 -17 -17 -17 -17 -17 -18 -18 -18 -18 -18 -19 -18 -18 -18 -18 -18 -20 -19 -19 -20 -21 -22 -22 -22 -22
-19 -20 -19 -19 -19 -19 -19 -18 -18 -18 -18 -18 -18 -18 -18 -18 -18 -17 -17 -17 -17 -17 -17 -17 -17 -17 -17 -18 -18 -18 -18 -18 -18 -19 -18 -18 -18 -18 -19 -20 -20 -20 -20 -20 -21 -21 -21
-20 -20 -20 -19 -19 -19 -19 -19 -18 -18 -18 -18 -18 -18 -18 -18 -18 -18 -18 -18 -17 -18 -18 -18 -18 -17 -18 -18 -18 -18 -18 -19 -19 -19 -18 -18 -19 -18 -19 -19 -20 -20 -20 -21 -21 -21 -22
-21 -20 -20 -20 -20 -20 -20 -19 -19 -19 -19 -18 -18 -18 -18 -18 -18 -18 -18 -18 -18 -18 -18 -18 -18 -18 -18 -18 -19 -19 -19 -19 -19 -19 -19 -19 -19 -19 -19 -19 -20 -20 -21 -22 -22 -22 -22
-22 -21 -21 -21 -20 -20 -20 -20 -19 -19 -19 -19 -19 -19 -19 -19 -19 -18 -18 -18 -18 -18 -18 -18 -18 -18 -18 -18 -19 -19 -19 -19 -20 -19 -19 -19 -20 -19 -20 -19 -19 -20 -21 -22 -22 -22 -22
-22 -22 -22 -22 -22 -21 -21 -20 -20 -20 -19 -19 -19 -19 -19 -19 -19 -19 -19 -19 -19 -19 -19 -19 -19 -19 -19 -19 -19 -19 -19 -20 -20 -20 -20 -19 -20 -19 -20 -19 -20 -20 -21 -22 -22 -22 -23
-23 -22 -22 -22 -22 -22 -22 -21 -20 -20 -20 -20 -20 -20 -20 -20 -20 -19 -19 -19 -19 -19 -19 -19 -19 -19 -19 -20 -20 -19 -19 -20 -20 -20 -20 -20 -21 -20 -20 -20 -20 -21 -21 -22 -22 -22 -23
-24 -23 -23 -22 -23 -23 -22 -22 -21 -21 -21 -20 -20 -20 -20 -20 -20 -20 -20 -20 -20 -19 -20 -20 -20 -20 -20 -20 -20 -20 -20 -20 -20 -20 -21 -20 -21 -20 -20 -21 -21 -21 -21 -22 -22 -22 -23
Height
5754 5752 5750 5749 5750 5750 5752 5755 5759 5763 5767 5770 5774 5776 5779 5782 5785 5788 5790 5793 5795 5797 5799 5802 5805 5806 5809 5810 5812 5814 5815 5817 5818 5820 5823 5826 5828 5831 5835 5838 5841 5839 5846 5850 5858 5862 5866
5755 5753 5752 5750 5751 5752 5753 5755 5758 5761 5764 5767 5770 5774 5776 5779 5782 5785 5787 5789 5791 5793 5795 5796 5797 5799 5801 5803 5804 5804 5806 5808 5811 5813 5814 5816 5818 5822 5824 5828 5830 5831 5835 5843 5849 5855 5857
5755 5754 5753 5753 5753 5753 5755 5756 5758 5760 5762 5765 5767 5770 5773 5775 5778 5780 5783 5786 5787 5789 5790 5790 5791 5792 5794 5796 5796 5798 5799 5799 5801 5803 5804 5806 5807 5810 5815 5818 5818 5823 5824 5829 5839 5845 5847
5753 5753 5753 5753 5753 5754 5755 5756 5757 5759 5761 5763 5766 5768 5770 5773 5775 5778 5780 5781 5782 5784 5784 5785 5786 5787 5787 5789 5790 5791 5791 5792 5794 5795 5796 5796 5798 5799 5800 5802 5806 5809 5813 5818 5826 5829 5835
5752 5752 5753 5753 5753 5753 5754 5756 5757 5759 5760 5762 5765 5767 5769 5770 5772 5774 5776 5777 5778 5778 5779 5780 5780 5781 5782 5783 5784 5785 5785 5786 5786 5787 5787 5788 5789 5788 5787 5787 5790 5795 5799 5803 5812 5815 5815
5751 5751 5752 5753 5752 5753 5753 5754 5756 5757 5759 5760 5762 5763 5765 5766 5768 5769 5770 5771 5772 5774 5775 5775 5776 5779 5778 5779 5779 5778 5779 5780 5780 5780 5779 5778 5777 5776 5776 5774 5776 5777 5778 5783 5790 5797 5795
5750 5749 5750 5751 5752 5751 5752 5752 5753 5755 5756 5757 5758 5760 5761 5763 5764 5765 5767 5768 5769 5770 5770 5771 5772 5773 5773 5774 5774 5774 5772 5773 5773 5772 5771 5768 5765 5763 5763 5761 5761 5761 5760 5766 5774 5777 5776
5748 5747 5747 5748 5749 5750 5750 5751 5752 5753 5754 5755 5756 5757 5758 5759 5760 5761 5762 5763 5763 5764 5763 5763 5764 5765 5765 5765 5766 5765 5765 5766 5764 5763 5761 5757 5753 5750 5748 5746 5745 5745 5739 5749 5751 5752 5756
5745 5745 5745 5745 5746 5747 5748 5749 5750 5750 5751 5752 5753 5754 5755 5755 5756 5756 5756 5756 5756 5756 5757 5757 5757 5757 5758 5759 5757 5757 5758 5756 5754 5751 5747 5743 5739 5736 5732 5728 5725 5726 5722 5723 5727 5728 5737
5740 5741 5742 5742 5742 5743 5745 5746 5747 5747 5748 5749 5750 5751 5751 5752 5754 5753 5753 5753 5752 5752 5752 5753 5751 5750 5751 5750 5750 5749 5747 5747 5744 5738 5735 5729 5724 5719 5714 5708 5698 5700 5700 5697 5699 5702 5721
5735 5736 5737 5738 5738 5739 5740 5742 5743 5744 5745 5746 5747 5747 5748 5749 5749 5749 5750 5749 5749 5748 5748 5748 5746 5743 5743 5743 5741 5740 5738 5736 5733 5729 5724 5715 5710 5705 5695 5687 5681 5678 5677 5677 5679 5682 5694
5729 5730 5731 5733 5734 5735 5736 5737 5739 5741 5742 5743 5744 5744 5745 5746 5746 5746 5746 5745 5745 5746 5743 5742 5739 5737 5736 5735 5733 5732 5729 5729 5726 5724 5717 5707 5700 5692 5684 5677 5669 5663 5661 5660 5665 5671 5672
5721 5724 5725 5727 5729 5730 5731 5733 5735 5737 5738 5739 5740 5741 5742 5742 5743 5742 5742 5742 5742 5739 5739 5737 5734 5732 5731 5729 5727 5725 5724 5722 5720 5717 5713 5707 5695 5686 5675 5670 5665 5655 5654 5655 5660 5664 5663
5713 5716 5719 5721 5722 5724 5726 5727 5729 5731 5733 5734 5735 5737 5737 5738 5738 5738 5738 5739 5738 5735 5733 5732 5729 5728 5727 5725 5722 5719 5719 5716 5713 5710 5705 5701 5692 5682 5674 5664 5659 5656 5653 5657 5655 5657 5662
5703 5706 5710 5713 5716 5717 5720 5721 5723 5725 5727 5728 5730 5731 5733 5733 5733 5733 5734 5733 5732 5731 5729 5727 5725 5723 5721 5719 5717 5713 5713 5710 5707 5704 5699 5693 5686 5676 5666 5660 5658 5656 5654 5655 5652 5655 5655
5692 5696 5700 5703 5707 5710 5712 5714 5716 5718 5720 5722 5724 5726 5727 5728 5728 5728 5728 5728 5727 5726 5725 5724 5722 5720 5718 5716 5713 5708 5706 5705 5701 5698 5693 5688 5683 5672 5665 5659 5654 5653 5653 5654 5651 5651 5653
5679 5684 5688 5692 5696 5701 5704 5707 5709 5711 5713 5715 5717 5719 5721 5722 5723 5723 5723 5722 5721 5720 5720 5719 5717 5716 5713 5711 5707 5704 5701 5699 5696 5692 5688 5682 5678 5670 5662 5655 5655 5651 5650 5650 5649 5651 5650
5665 5670 5676 5681 5686 5690 5694 5698 5701 5703 5706 5708 5710 5712 5714 5715 5718 5717 5717 5717 5717 5716 5715 5714 5712 5711 5709 5707 5703 5699 5695 5692 5689 5686 5684 5679 5674 5666 5659 5652 5650 5648 5646 5646 5647 5648 5648
5649 5656 5662 5668 5674 5679 5683 5688 5691 5694 5698 5700 5702 5705 5706 5708 5710 5711 5712 5711 5711 5710 5709 5708 5707 5705 5704 5702 5700 5695 5690 5686 5683 5680 5677 5674 5669 5665 5656 5651 5647 5645 5644 5643 5642 5643 5644
5631 5640 5647 5654 5660 5666 5671 5677 5681 5685 5688 5692 5694 5696 5699 5700 5702 5704 5705 5705 5705 5705 5704 5703 5701 5700 5698 5696 5694 5691 5687 5683 5678 5675 5671 5668 5665 5660 5655 5649 5644 5642 5641 5638 5637 5639 5636
5614 5623 5632 5637 5645 5653 5658 5664 5670 5674 5678 5682 5684 5687 5689 5692 5694 5696 5697 5699 5699 5698 5697 5697 5696 5694 5692 5691 5689 5685 5682 5677 5673 5669 5666 5664 5661 5657 5649 5646 5642 5639 5637 5635 5631 5629 5625
5595 5605 5614 5622 5630 5638 5644 5650 5656 5662 5667 5670 5674 5678 5680 5683 5685 5688 5689 5690 5691 5691 5691 5690 5690 5688 5685 5685 5683 5680 5677 5673 5669 5666 5661 5657 5655 5652 5647 5642 5639 5634 5628 5627 5624 5622 5620
5576 5587 5597 5606 5615 5623 5630 5636 5643 5648 5654 5659 5663 5667 5670 5673 5675 5679 5681 5682 5683 5683 5683 5683 5683 5682 5679 5678 5676 5673 5670 5667 5664 5660 5656 5653 5649 5646 5642 5638 5634 5629 5625 5622 5620 5616 5617
5558 5567 5579 5590 5599 5607 5616 5622 5629 5635 5641 5646 5651 5655 5660 5664 5666 5668 5671 5673 5674 5675 5675 5675 5674 5674 5674 5671 5670 5667 5664 5661 5657 5653 5650 5645 5643 5640 5637 5633 5630 5623 5620 5617 5613 5611 5609
5540 5550 5560 5573 5583 5592 5600 5608 5615 5621 5628 5633 5639 5644 5648 5652 5655 5659 5661 5663 5664 5665 5666 5665 5666 5665 5664 5663 5662 5660 5657 5654 5650 5647 5643 5639 5636 5634 5630 5627 5626 5618 5614 5612 5607 5604 5602
5522 5533 5543 5554 5567 5577 5586 5593 5601 5608 5615 5620 5626 5632 5636 5640 5645 5648 5650 5653 5655 5656 5656 5657 5656 5656 5655 5654 5653 5652 5649 5647 5643 5641 5638 5633 5629 5627 5623 5620 5615 5613 5609 5604 5600 5598 5594
5504 5517 5527 5537 5550 5561 5570 5579 5587 5594 5601 5607 5614 5619 5625 5629 5633 5636 5640 5642 5644 5645 5646 5646 5646 5646 5645 5643 5643 5642 5640 5639 5636 5634 5630 5625 5620 5619 5614 5612 5609 5603 5600 5596 5593 5593 5588
5488 5500 5511 5521 5533 5546 5555 5564 5572 5580 5588 5594 5601 5606 5613 5617 5622 5625 5628 5631 5632 5634 5635 5637 5636 5636 5634 5634 5634 5632 5630 5629 5628 5626 5622 5619 5614 5611 5607 5605 5600 5596 5591 5588 5585 5582 5578
5475 5487 5496 5506 5517 5530 5540 5550 5559 5566 5574 5581 5587 5593 5600 5605 5611 5614 5617 5619 5620 5623 5625 5625 5625 5624 5623 5623 5624 5622 5620 5619 5618 5619 5615 5611 5605 5602 5602 5599 5590 5587 5582 5578 5574 5572 5568
Wind_Speed
6 3 3 4 5 8 10 11 11 14 17 19 21 21 21 24 25 26 27 27 26 28 30 32 34 34 34 36 36 38 38 39 39 40 40 41 43 43 43 43 50 52 44 45 44 43 45
2 4 5 7 7 8 10 11 12 12 11 11 12 12 13 14 15 16 16 17 18 18 20 22 24 25 28 31 29 33 35 38 41 44 48 47 46 45 46 45 45 47 57 54 48 45 47
1 2 4 6 8 9 10 11 11 12 11 11 10 10 10 11 11 12 12 12 13 15 16 18 21 23 25 26 28 29 30 34 37 39 42 46 49 51 51 49 51 48 51 51 51 52 52
4 4 4 6 7 9 10 10 11 11 11 10 10 8 8 9 9 10 11 12 11 11 12 14 16 18 21 24 24 24 27 27 29 32 34 38 44 48 51 53 55 57 56 54 51 52 56
6 7 7 8 9 10 10 10 10 10 10 10 9 9 8 7 7 8 9 10 11 11 11 12 12 13 14 16 17 18 20 23 24 26 28 32 36 42 48 54 57 57 61 62 56 56 60
7 8 9 9 10 10 10 9 9 8 8 8 6 6 5 6 6 7 9 10 12 13 13 12 12 11 11 12 14 17 20 23 27 30 33 35 36 39 43 47 54 59 63 66 65 63 65
9 9 10 10 10 10 10 9 8 7 6 6 5 5 5 5 6 6 7 8 11 13 14 16 16 17 18 21 24 25 27 28 29 33 35 39 40 42 45 50 54 58 63 69 69 68 73
12 11 12 12 11 10 10 9 8 7 6 5 5 5 5 6 7 8 9 9 10 10 11 13 15 17 18 19 21 22 24 26 29 31 34 36 42 46 50 54 56 60 66 67 71 73 74
15 14 14 13 13 12 11 10 9 7 6 5 6 6 6 6 6 6 8 9 10 12 13 15 16 16 16 18 20 22 24 26 28 31 33 37 41 46 51 55 58 59 67 70 73 77 78
17 17 17 16 15 14 13 11 9 7 6 6 7 6 5 5 3 4 6 8 9 11 12 13 16 20 21 22 22 22 24 24 25 30 32 36 41 46 50 51 55 57 61 72 77 78 79
20 19 18 18 17 16 15 12 9 8 8 8 7 6 5 4 3 4 6 6 7 8 9 12 15 18 17 18 19 19 22 22 26 29 33 38 43 47 52 52 44 50 52 61 69 75 80
23 22 21 19 19 18 16 14 12 10 10 9 9 8 7 6 5 5 6 7 7 8 9 10 12 14 15 16 17 19 21 22 25 27 31 37 44 50 50 41 38 36 45 53 53 57 67
27 26 24 22 21 20 18 17 15 14 12 11 10 9 8 8 7 7 7 8 9 9 10 11 13 13 13 15 17 19 19 21 25 28 28 31 38 44 44 37 31 27 34 37 36 42 56
31 30 29 27 25 23 22 21 19 17 16 16 15 13 12 11 10 10 9 9 10 10 12 12 13 14 14 15 19 20 17 20 24 27 31 32 31 38 31 32 21 12 19 21 24 25 35
37 35 33 32 30 27 26 24 21 19 18 17 17 17 16 14 12 11 10 10 10 10 12 14 15 16 18 20 19 20 19 20 23 26 31 34 30 29 31 26 20 14 19 26 35 21 33
42 40 38 36 34 31 29 27 24 22 19 18 18 18 16 15 13 11 11 11 12 12 13 14 15 16 17 18 20 21 20 20 23 25 29 31 28 27 24 24 23 17 19 15 24 33 21
48 45 43 41 39 36 34 31 28 26 24 21 20 18 16 16 14 12 11 11 12 14 15 15 16 17 18 20 21 22 23 21 21 24 26 29 29 22 23 27 18 20 25 26 15 10 20
53 50 48 46 43 41 38 35 32 29 27 26 25 21 18 18 17 16 14 13 13 14 16 16 18 19 19 19 20 22 25 24 23 23 23 24 27 24 21 26 19 19 21 23 26 30 29
58 56 53 50 48 45 43 39 36 33 31 29 29 26 24 23 21 19 17 15 13 12 14 17 18 21 20 21 21 21 23 26 25 25 25 24 25 22 17 24 21 19 19 23 22 25 20
63 60 58 55 52 50 47 44 40 37 35 33 31 31 29 26 23 21 19 18 16 16 16 17 20 22 21 22 22 22 22 22 24 25 26 25 24 24 21 16 19 20 22 25 31 31 37
66 65 63 60 57 54 52 49 45 43 40 37 35 33 32 31 27 24 21 19 20 18 18 19 21 23 23 20 21 24 24 24 25 26 26 24 23 22 24 23 19 17 17 28 32 31 36
70 67 66 64 61 59 56 53 50 47 45 42 39 36 35 34 31 28 25 23 21 21 21 20 22 25 25 22 21 23 24 25 24 23 24 26 25 23 22 24 21 13 19 20 24 30 38
73 70 69 66 65 62 59 56 53 50 48 46 42 41 40 37 35 32 29 26 25 23 24 24 23 25 28 26 24 26 26 27 26 25 25 25 26 25 24 22 22 23 21 23 25 29 29
74 77 70 71 68 64 61 58 54 52 49 48 46 45 42 41 38 36 33 30 29 27 26 27 27 27 28 29 26 27 26 27 28 27 27 28 26 27 25 26 24 28 27 23 26 30 33
74 76 74 71 70 66 63 60 56 53 51 49 48 46 43 42 41 38 36 33 32 31 30 30 29 31 31 32 28 27 26 27 28 28 29 28 26 27 28 28 24 26 27 26 29 32 32
75 73 74 72 70 68 65 62 58 55 53 51 48 46 44 43 42 41 37 36 35 33 33 33 32 32 34 35 30 29 27 25 28 28 28 30 27 26 29 31 30 27 29 27 29 28 32
74 73 72 72 71 68 66 64 60 58 55 53 50 48 46 44 43 41 39 39 36 36 34 34 34 34 38 37 32 31 29 27 27 28 28 30 31 29 31 32 30 31 32 33 33 33 33
74 73 72 72 70 69 68 65 63 59 57 55 52 50 48 46 44 43 41 39 39 37 36 34 37 40 40 35 33 33 30 29 27 29 29 28 30 32 33 31 30 33 35 36 36 35 34
69 71 72 73 70 67 67 64 62 60 59 56 54 53 49 47 45 43 42 41 40 38 36 38 41 41 39 35 33 33 34 31 29 27 28 29 33 35 32 30 31 33 37 38 38 35 36
Wind_Direction
30 57 102 116 140 145 151 168 191 210 221 228 232 237 240 242 245 247 249 250 248 248 247 246 247 247 246 246 245 245 245 246 250 254 252 249 250 253 252 248 246 246 243 243 235 233 233
41 70 95 121 136 144 149 156 164 173 182 191 198 205 215 223 227 231 235 239 244 244 245 247 249 251 248 248 252 253 251 250 249 249 252 253 251 249 253 254 252 246 250 248 246 238 235
180 132 129 128 133 139 150 157 165 173 180 188 197 206 213 219 226 231 231 231 237 246 254 255 254 256 256 256 253 255 256 257 257 256 254 254 257 257 253 250 252 251 250 248 247 247 242
170 163 155 150 149 147 149 150 154 157 162 165 170 180 192 201 208 214 224 230 242 247 255 259 258 257 256 256 257 258 259 259 259 261 263 265 262 260 259 258 250 249 249 249 246 246 241
186 177 174 164 153 152 154 159 165 164 166 170 174 183 192 203 214 232 242 247 251 258 264 261 254 256 255 258 258 261 264 267 268 267 268 267 267 266 263 259 256 254 249 248 243 241 240
201 186 187 187 178 175 174 171 170 171 173 175 185 199 211 222 235 249 258 258 256 254 259 261 260 264 259 262 267 272 274 273 274 275 274 274 274 271 270 268 263 257 253 248 244 239 238
212 202 199 198 198 189 185 182 178 178 183 190 207 226 237 243 249 261 265 267 267 263 256 256 259 260 264 272 275 277 276 273 272 272 273 278 279 278 273 270 266 263 258 249 247 244 239
226 217 210 208 202 200 199 195 196 197 200 208 221 236 252 257 263 268 273 272 273 274 281 282 279 277 276 278 276 276 278 281 280 282 283 280 279 279 277 274 269 263 261 256 248 245 243
234 229 223 213 211 208 209 210 204 199 200 211 226 236 247 255 268 280 292 297 296 292 286 282 282 280 279 280 281 281 278 282 288 294 292 291 288 285 283 278 272 265 259 253 251 245 241
239 238 232 227 216 213 214 211 207 202 202 210 214 214 220 235 249 288 306 304 300 291 284 274 269 270 271 272 276 285 290 293 300 303 301 300 301 301 298 289 276 264 256 250 246 244 241
243 239 233 229 220 212 211 211 208 212 215 214 217 224 228 235 262 304 308 314 319 310 302 287 280 280 278 280 286 291 297 299 308 317 319 322 317 316 312 304 290 273 258 249 248 248 240
242 234 228 221 217 211 214 214 214 215 217 223 228 233 237 251 263 286 296 314 314 311 322 315 301 291 286 286 293 306 305 309 313 322 334 335 326 320 321 318 309 288 261 251 247 249 250
237 230 225 219 219 220 218 222 228 233 232 235 238 242 246 248 259 276 296 305 315 320 326 326 325 317 310 307 307 305 303 307 314 318 325 344 329 326 322 319 323 298 266 262 258 253 254
235 230 228 229 226 228 230 232 237 241 241 241 244 248 251 256 265 275 282 289 296 322 327 326 326 328 323 316 312 308 311 311 318 327 329 343 333 330 321 326 329 303 248 280 257 263 259
234 232 231 232 233 232 236 237 237 238 239 243 245 247 252 253 256 263 272 282 292 312 322 330 330 335 334 326 320 312 318 315 320 329 335 341 343 329 322 328 328 275 276 252 254 270 251
233 232 232 232 233 234 232 233 232 235 239 244 247 247 250 253 255 264 276 284 290 300 310 322 327 330 337 331 328 318 319 320 324 331 337 345 354 334 317 311 314 269 253 263 288 275 263
231 232 231 231 231 232 232 233 234 236 238 241 244 242 242 244 245 257 273 285 294 297 301 310 318 327 332 337 332 327 322 322 325 328 338 344 349 336 326 322 306 292 268 274 294 321 274
232 230 231 231 231 232 231 233 236 237 238 238 241 241 243 247 253 259 268 283 292 300 303 305 311 321 327 331 334 333 327 326 329 329 335 343 347 345 320 320 310 308 265 269 271 275 281
231 231 229 230 231 231 232 232 234 237 239 240 240 241 242 245 247 253 265 273 289 301 309 309 310 312 319 325 331 333 330 327 330 333 336 341 341 353 312 322 302 302 289 266 268 265 266
229 230 229 229 229 232 233 234 234 237 239 241 242 241 245 245 245 248 253 267 281 291 301 314 323 315 314 318 324 326 326 327 326 331 333 337 337 345 339 312 290 280 275 275 274 269 273
229 229 229 228 230 231 233 234 236 238 240 242 243 243 242 244 246 248 253 258 268 281 295 305 313 317 317 312 317 320 322 325 324 326 328 334 335 341 327 336 327 294 276 259 262 270 277
226 228 229 229 229 231 233 234 236 238 241 241 244 244 244 244 245 249 253 257 265 275 284 296 308 310 315 310 306 311 315 317 320 323 324 329 335 338 325 333 332 306 276 269 269 262 263
223 225 227 231 229 231 233 234 237 236 238 243 242 244 244 244 245 247 252 257 265 273 282 290 300 306 307 311 306 305 311 312 315 321 320 324 330 332 327 324 324 311 307 285 269 270 270
225 222 225 227 230 230 232 234 236 238 239 240 241 242 244 245 246 247 251 257 262 269 277 283 290 296 299 296 302 296 302 306 310 316 320 322 326 328 323 321 322 314 320 309 289 275 270
224 226 221 226 228 230 231 233 234 237 238 239 240 241 242 242 244 245 249 257 265 269 275 281 285 292 297 298 297 293 293 301 307 312 318 320 323 321 319 317 320 316 314 307 298 293 286
222 224 227 223 227 228 230 232 234 236 237 238 239 240 241 241 243 247 249 254 260 265 269 275 284 291 295 293 292 294 287 296 300 308 313 313 319 319 316 320 324 314 312 307 303 298 292
219 221 223 224 225 227 228 230 233 235 236 238 238 238 239 241 243 248 252 255 259 264 270 278 285 292 293 291 290 292 288 292 295 302 310 313 312 316 313 321 319 311 309 306 302 305 299
221 221 221 222 222 226 227 227 230 232 235 237 237 237 237 240 243 247 251 255 258 264 269 276 285 293 290 286 284 287 287 286 291 298 302 308 309 308 310 318 315 308 306 301 302 309 307
224 223 223 222 219 223 225 227 229 230 234 235 237 238 239 240 244 246 250 254 258 263 268 278 287 288 285 284 283 283 286 282 285 291 298 304 305 303 309 317 305 305 305 304 306 306 307